Flag for American Samoa Weather past 2 weeks in Pago Pago, American Samoa

Now
83 °F

Sprinkles. Broken clouds.


Feels Like: 93 °F
Forecast: 80 / 86 °F
Wind: 17 mph from East

Location: Pago Pago / Int. Airp.

Current Time: May 28, 2015 at 10:06:20 AM

Latest Report: May 28, 2015 at 8:50 AM


Visibility: 12 mi

Pressure: 29.98 "Hg

Humidity: 86%

Dew point: 78 °F

Location of Pago PagoLocation

Historic Weather in Pago Pago — Graph

°F

Pago Pago temperature yesterday

Maximum temperature yesterday: 87 °F (at 12:50 PM)
Minimum temperature yesterday: 79 °F (at 6:57 AM)
Average temperature yesterday: 82 °F

Past Weeks' High & Low Weather Summary

 TemperatureHumidityPressure
High88 °F (May 26, 1:51 PM)100% (May 22, 12:54 PM)30.01 "Hg (May 22, 12:54 PM)
Low75 °F (May 24, 3:55 AM)65% (May 18, 11:52 AM)29.72 "Hg (May 16, 2:50 PM)
Average81 °F85%29.89 "Hg
* Reported May 13 8:51 AM — May 28 8:50 AM, Pago Pago, Weather by CustomWeather, © 2015

Note: Actual official high and low records may vary slightly from our data, if they occured in-between our weather recording intervals... More about our weather records

Advertising

Pago Pago weather history for previous 24 hours

 ConditionsComfort  
Time TempWeatherWind HumidityBarometerVisibility
8:50 AM
Thu, May 28
83 °FSprinkles. Broken clouds.17 mph86%29.98 "Hg12 mi
7:50 AM80 °FSprinkles. Broken clouds.14 mph91%29.98 "Hg12 mi
6:50 AM77 °FBroken clouds.17 mph91%29.96 "Hg12 mi
5:50 AM80 °FOvercast.14 mph84%29.94 "Hg10 mi
4:52 AM79 °FSprinkles. Overcast.No wind84%29.93 "Hg7 mi
3:52 AM79 °FSprinkles. Overcast.10 mph89%29.91 "Hg7 mi
2:58 AM81 °FSprinkles. Mostly cloudy.14 mph89%29.91 "Hg5 mi
1:53 AM81 °FSprinkles. Mostly cloudy.16 mph89%29.91 "Hg5 mi
12:50 AM80 °FSprinkles. Partly cloudy.8 mph90%29.93 "Hg7 mi
11:52 PM
Wed, May 27
82 °FPartly cloudy.12 mph89%29.94 "Hg10 mi
10:52 PM82 °FPartly cloudy.16 mph87%29.95 "Hg10 mi
9:50 PM82 °FPartly cloudy.18 mph87%29.95 "Hg10 mi
8:50 PM82 °FPartly cloudy.17 mph89%29.94 "Hg10 mi
7:50 PM82 °FPartly cloudy.16 mph89%29.93 "Hg10 mi
6:51 PM81 °FPartly cloudy.7 mph88%29.90 "Hg10 mi
5:50 PM82 °FSprinkles. Broken clouds.6 mph87%29.88 "Hg11 mi
4:50 PM81 °FSprinkles. Broken clouds.6 mph84%29.88 "Hg11 mi
3:50 PM80 °FSprinkles. Cloudy.6 mph84%29.86 "Hg11 mi
2:50 PM82 °FCloudy.23 mph85%29.88 "Hg11 mi
1:51 PM84 °FThunderstorms. Broken clouds.9 mph79%29.88 "Hg11 mi
12:50 PM87 °FBroken clouds.15 mph76%29.90 "Hg12 mi
11:51 AM86 °FBroken clouds.12 mph79%29.93 "Hg12 mi
10:53 AM82 °FPartly sunny.18 mph86%29.95 "Hg12 mi
Weather by CustomWeather, © 2015

See weather overviewHow to use our weather pages